Regional Weather Roundup
Issued by NWS

Home | Current Version | Previous Version | Text Only | Print | Product List | Glossary On
Versions: 1 2 3 4 5 6 7 8 9 10 11 12 13 14 15 16 17 18 19 20 21 22 23 24 25 26 27
000
ASUS46 KSEW 270510
RWRWA

WASHINGTON REGIONAL WEATHER ROUNDUP
NATIONAL WEATHER SERVICE SEATTLE WA
1000 PM PDT MON JUN 26 2017

NOTE:"FAIR" INDICATES FEW OR NO CLOUDS BELOW 12,000 FEET WITH NO
SIGNIFICANT WEATHER AND/OR OBSTRUCTIONS TO VISIBILITY.

WAZ507-509-555>559-270600-
SEATTLE, TACOMA, EVERETT, AND VICINITY

CITY           SKY/WX    TMP DP  RH WIND       PRES   REMARKS
EVERETT        PTCLDY    60  52  74 NW3       29.99R
BOEING FIELD   PTCLDY    62  54  74 S6        29.98R
RENTON         PTCLDY    65  54  67 S7        29.98R
SEATAC AIRPORT PTCLDY    61  52  72 SW8       29.99R
JBLM-MCCHORD   PTCLDY    60  53  78 SW7       30.00R
PUYALLUP       FAIR      59  52  77 W5        30.01R
BREMERTON      CLEAR     56  51  84 S6        29.99R
JBLM-FT LEWIS  PTCLDY    59  53  83 S8        29.99S
TACOMA NARROWS CLEAR     57  50  77 W6        30.00S
$$

WAZ001-503-506-510-514-515-270600-
NORTH INTERIOR

CITY           SKY/WX    TMP DP  RH WIND       PRES   REMARKS
BELLINGHAM     CLEAR     58  51  78 S10G21    29.95R
FRIDAY HARBOR  CLEAR     55  49  80 VRB5      29.96R
EASTSOUND      CLEAR     59  50  72 S10       29.95R
PORT ANGELES   CLEAR     52  49  89 W8        30.00R
EDIZ HOOK      FAIR      54  49  83 SW9G22    29.99R
PORT TOWNSEND    N/A     57  50  77 CALM      29.98R
NAS WHIDBEY    PTCLDY    56  47  71 SW13      30.01R
ARLINGTON      PTCLDY    57  49  74 NW6       29.98R
BURLINGTON     CLEAR     55  46  71 S6G13     29.98R
$$

WAZ020-022-039-040-504-511-512-270600-
SOUTHWEST INTERIOR

CITY           SKY/WX    TMP DP  RH WIND       PRES   REMARKS
SHELTON        NOT AVBL
OLYMPIA        PTCLDY    55  50  83 S7        30.01R
CHEHALIS       FAIR      55  52  88 W5        30.03S
KELSO          PTCLDY    58  50  75 NW9       30.04S
VANCOUVER      CLOUDY    64  53  67 N8        30.00R
SCAPPOOSE, OR  PTCLDY    60  51  72 N8        30.00R
PORTLAND, OR   MOCLDY    64  51  62 N6        30.00R
$$

WAZ021-516-517-270600-
WASHINGTON COAST

CITY           SKY/WX    TMP DP  RH WIND       PRES   REMARKS
FORKS          CLOUDY    55  50  83 CALM      30.03R
HOQUIAM        PTCLDY    56  50  80 W14       30.04S
ASTORIA, OR    CLOUDY    58  49  72 W7        30.06R
$$

WAZ019-023-024-040-567>569-270600-
CASCADE MOUNTAINS AND COLUMBIA GORGE

CITY           SKY/WX    TMP DP  RH WIND       PRES   REMARKS
STAMPEDE PASS  MOCLDY    52  49  89 W8        30.01
TROUTDALE, OR  MOCLDY    66  52  60 NW7       29.99R
HOOD RIVER, OR MOCLDY    70  54  56 W8G20     29.91S
THE DALLES, OR MOCLDY    74  55  51 W21G26    29.83R
$$

WAZ026-027-041>044-520-521-270600-
EAST SLOPES

CITY           SKY/WX    TMP DP  RH WIND       PRES   REMARKS
OMAK           CLOUDY    80  31  16 NW16      29.70R
WENATCHEE      CLOUDY    77  48  35 NW24      29.75R
ELLENSBURG     CLOUDY    69  46  43 NW29G40   29.84R
YAKIMA         CLOUDY    82  49  31 N16       29.78R
SUNNYSIDE ARPT CLOUDY    72  56  57 SW5       29.76R
YAKIMA TC      MOCLDY    77  41  27 NW6       29.79
$$

WAZ028-034-035-270600-
COLUMBIA BASIN

CITY           SKY/WX    TMP DP  RH WIND       PRES   REMARKS
EPHRATA        CLOUDY    84  37  18 NW7       29.73R
MOSES LAKE     CLOUDY    76  55  48 S14       29.74R
PASCO          CLOUDY    76  60  57 S7        29.76R
RICHLAND ARPT  CLOUDY    76  58  53 S7        29.75R
HERMISTON, OR  MOCLDY    73  57  57 S14       29.79R
$$

WAZ036>038-270600-
NORTHEAST WASHINGTON

CITY           SKY/WX    TMP DP  RH WIND       PRES   REMARKS
SPOKANE GEIGER CLOUDY    67  58  72 S13G23    29.81S
SPOKANE FELTS  CLOUDY    69  60  73 E7        29.82R
FAIRCHILD AFB  MOCLDY    65  59  82 S16       29.81F
COEURDALENE,ID LGT RAIN  67  60  78 E10       29.86F
DEER PARK      CLOUDY    65  58  78 S6        29.83R
$$

WAZ029>033-270600-
SOUTHEAST WASHINGTON

CITY           SKY/WX    TMP DP  RH WIND       PRES   REMARKS
PULLMAN        CLOUDY    66  53  63 SE3       29.86F
LEWISTON, ID   CLOUDY    74  54  49 NW9       29.80F
WALLA WALLA    CLOUDY    70  59  68 SE12      29.78S
PENDLETON, OR  MOCLDY    68  56  65 SW6       29.83R
$$




USA.gov is the U.S. government's official web portal to all federal, state and local government web resources and services.